User: anonymous   Login
Location: Theydon Bois
(51.6750°N, 0.1050°E)
Time: 00:17:31
(UTC+01:00)
Language:

Cosmos 1420 Rocket - Orbit

View from above orbital plane
View from above orbital plane
View from above satellite
View from above satellite

Ground track
Ground track

The orbit data is extracted from the following two-line orbital elements,

1 13649U 82109B   18172.76573631  .00000029  00000-0  18633-4 0  9996
2 13649  74.0010  50.9517 0017749 122.8489 298.9673 14.37108612864719
Epoch (UTC): 21 June 2018 18:22:39
Eccentricity: 0.0017749
inclination: 74.0010°
perigee height: 755 km
apogee height: 781 km
right ascension of ascending node: 50.9517°
argument of perigee: 122.8489°
revolutions per day: 14.37108612
mean anomaly at epoch: 298.9673°
orbit number at epoch: 86471

The dashed part of the orbit path shows where the satellite is in the earth's shadow,  

DLR